Flag for Germany Weather past 2 weeks in Monheim am Rhein, North Rhine-Westphalia, Germany

Now
55 °F

Passing clouds.


Feels Like: 55 °F
Forecast: 49 / 64 °F
Wind: 5 mph from Southwest

Location: Duesseldorf

Current Time: Aug 23, 2014 at 9:55:28 PM

Latest Report: Aug 23, 2014 at 9:20 PM


Visibility: N/A

Pressure: 29.98 "Hg

Humidity: 72%

Dew point: 46 °F

Location of Monheim am RheinLocation

Historic Weather in Monheim am Rhein — Graph

°F

Monheim am Rhein temperature yesterday

Maximum temperature yesterday: 66 °F (at 3:50 PM)
Minimum temperature yesterday: 52 °F (at 5:50 AM)
Average temperature yesterday: 58 °F

Past Weeks' High & Low Weather Summary

 TemperatureHumidityPressure
High73 °F (Aug 9, 3:50 PM)94% (Aug 13, 5:20 AM)30.09 "Hg (Aug 13, 5:20 AM)
Low46 °F (Aug 20, 2:50 AM)43% (Aug 11, 3:50 PM)29.56 "Hg (Aug 10, 6:20 PM)
Average60 °F75%29.86 "Hg
* Reported Aug 8 8:20 PM — Aug 23 8:50 PM, Monheim am Rhein, Weather by CustomWeather, © 2014

Note: Actual official high and low records may vary slightly from our data, if they occured in-between our weather recording intervals... More about our weather records

Advertising

Monheim am Rhein weather history for previous 24 hours

 ConditionsComfort  
Time TempWeatherWind HumidityBarometerVisibility
8:50 PM
Aug 23
57 °FPassing clouds.6 mph72%29.95 "HgN/A
8:20 PM59 °FScattered clouds.8 mph68%29.95 "HgN/A
7:50 PM59 °FBroken clouds.8 mph68%29.95 "HgN/A
7:20 PM59 °FBroken clouds.8 mph72%29.95 "HgN/A
6:50 PM61 °FPartly sunny.10 mph68%29.92 "HgN/A
6:20 PM61 °FScattered clouds.10 mph68%29.92 "HgN/A
5:50 PM59 °FBroken clouds.8 mph72%29.92 "HgN/A
5:20 PM59 °FSprinkles. Broken clouds.8 mph68%29.95 "HgN/A
4:50 PM59 °FScattered showers. Broken clouds.5 mph68%29.95 "HgN/A
4:20 PM59 °FSprinkles. Broken clouds.5 mph63%29.92 "HgN/A
3:50 PM59 °FSprinkles. Partly sunny.7 mph63%29.92 "HgN/A
3:20 PM61 °FSprinkles. Scattered clouds.10 mph59%29.92 "HgN/A
2:50 PM59 °FSprinkles. Scattered clouds.14 mph63%29.92 "HgN/A
2:20 PM59 °FScattered showers. Scattered clouds.21 mph59%29.92 "HgN/A
1:50 PM64 °FScattered clouds.12 mph60%29.92 "HgN/A
1:20 PM64 °FPassing clouds.13 mph60%29.92 "HgN/A
12:50 PM63 °FScattered clouds.14 mph68%29.92 "HgN/A
12:20 PM61 °FPassing clouds.12 mph68%29.92 "HgN/A
11:50 AM61 °FPassing clouds.12 mph68%29.92 "HgN/A
11:20 AM61 °FScattered clouds.9 mph72%29.92 "HgN/A
10:50 AM59 °FPartly sunny.9 mph72%29.92 "HgN/A
10:20 AM57 °FPartly sunny.9 mph82%29.92 "HgN/A
9:50 AM57 °FBroken clouds.10 mph82%29.92 "HgN/A
9:20 AM55 °FScattered clouds.9 mph88%29.92 "HgN/A
8:50 AM55 °FBroken clouds.8 mph88%29.92 "HgN/A
8:20 AM55 °FPartly sunny.7 mph88%29.92 "HgN/A
7:50 AM54 °FPartly sunny.6 mph94%29.89 "Hg5 mi
7:20 AM52 °FPassing clouds.8 mph94%29.89 "Hg4 mi
6:50 AM52 °FPassing clouds.7 mph94%29.89 "Hg4 mi
6:20 AM54 °FPartly cloudy.7 mph94%29.89 "Hg4 mi
5:50 AM54 °FPartly cloudy.5 mph94%29.89 "HgN/A
5:20 AM54 °FPartly cloudy.5 mph94%29.89 "HgN/A
4:50 AM52 °FPassing clouds.5 mph94%29.89 "HgN/A
4:20 AM50 °FClear.2 mph94%29.89 "Hg10 mi
3:50 AM52 °FClear.No wind94%29.89 "Hg10 mi
3:20 AM52 °FClear.3 mph88%29.89 "Hg10 mi
2:50 AM52 °FClear.5 mph88%29.89 "Hg10 mi
2:20 AM54 °FClear.5 mph88%29.89 "Hg10 mi
1:50 AM54 °FClear.5 mph88%29.89 "Hg10 mi
1:20 AM54 °FPassing clouds.5 mph88%29.89 "HgN/A
12:50 AM54 °FPartly cloudy.6 mph88%29.89 "HgN/A
12:20 AM55 °FClear.8 mph82%29.89 "Hg10 mi
11:50 PM
Aug 22
55 °FClear.9 mph82%29.89 "Hg10 mi
11:20 PM55 °FClear.9 mph88%29.89 "Hg10 mi
10:50 PM55 °FSprinkles. Partly cloudy.9 mph88%29.89 "HgN/A
10:20 PM55 °FSprinkles. Partly cloudy.9 mph94%29.89 "HgN/A
9:50 PM55 °FPassing clouds.9 mph94%29.89 "HgN/A
9:20 PM55 °FPassing clouds.9 mph88%29.89 "HgN/A
Weather by CustomWeather, © 2014

See weather overviewHow to use our weather pages